Location: Bednik
(45.3500°N, 16.3833°E)
Time: 21:30:02
(UTC+00:00)

Okean 3 - Pass Details

Date: 08 August 2020
Orbit: 576 x 601 km, 82.5° (Epoch: 22 September)

Event Time Altitude Azimuth Distance (km) Brightness Sun altitude
Rises 21:08:03 0° 356° (N) 2,847 8.0 -23.8°
Reaches altitude 10° 21:10:20 10° 2° (N) 1,944 6.9 -24.0°
Enters shadow 21:14:01 45° 55° (NE) 821 4.1 -24.3°
